Tracking 25612 objects as of 20-May-2022
HD Live streaming from Space Station
objects crossing your sky now

COSMOS 2251 DEB

Track COSMOS 2251 DEB now!
10-day predictions


NORAD ID: 34997
Int'l Code: 1993-036AFV
Perigee: 715.0 km
Apogee: 885.9 km
Inclination: 73.9 °
Period: 100.7 minutes
Semi major axis: 7171 km
RCS: 0.0096 m2 (small)
Launch date: June 16, 1993
Source: Commonwealth of Independent States (former USSR) (CIS)
Launch site: PLESETSK MISSILE AND SPACE COMPLEX (PKMTR)

Note: This is SATELLITE DEBRIS
aabbcc
Your satellite tracking list
Your tracking list is empty




NASA's NSSDC Master Catalog

Two Line Element Set (TLE):
1 34997U 93036AFV 22137.87603334  .00002833  00000-0  10356-2 0  9995
2 34997  73.8880 209.8215 0119165  90.5664 270.9140 14.29520949520159
Source of the keplerian elements: AFSPC